^^
Station Historical Data
 
Daily Summary for October 23, 2017 Units:  English    Metric   Both
« Previous Day
Next Day »
Daily Weekly Monthly Yearly Custom
  Current: High: Low: Average:
Temperature: 61.2 °F 61.9 °F 61.0 °F 61.4 °F
Dew Point: 60.1 °F 60.1 °F 59.2 °F 59.6 °F
Humidity: 96% 96% 92% 94%
Wind Speed: 0.0mph 2.9mph 0.0mph 1mph
Wind Gust: 1.0mph 5.0mph - -
WindCalm - - WNW
Pressure: 30.22 in 30.29 in 30.22 in -
Precipitation: 0.00 in      
Historical Graphs
 
 
Tabular Data for October 23, 2017
Time Temperature Dew Point Pressure Wind Wind Speed Wind Gust Humidity Rainfall Rate (Hourly)
00:00 61.3 °F 59.4 °F 30.29 in WNW 2.9 mph 4.0 mph 93% 0.00 in
00:05 61.3 °F 59.4 °F 30.29 in WNW 2.0 mph 3.0 mph 93% 0.00 in
00:10 61.3 °F 59.4 °F 30.29 in WNW 2.0 mph 3.0 mph 93% 0.00 in
00:15 61.3 °F 59.4 °F 30.29 in WNW 0.9 mph 4.0 mph 93% 0.00 in
00:20 61.5 °F 59.2 °F 30.29 in WNW 0.9 mph 3.0 mph 92% 0.00 in
00:25 61.5 °F 59.2 °F 30.28 in WNW 2.9 mph 3.0 mph 92% 0.00 in
00:30 61.5 °F 59.2 °F 30.28 in WNW 2.0 mph 4.0 mph 92% 0.00 in
00:35 61.7 °F 59.4 °F 30.28 in Calm   3.0 mph 92% 0.00 in
00:41 61.9 °F 59.5 °F 30.28 in NW 2.0 mph 3.0 mph 92% 0.00 in
00:46 61.9 °F 59.5 °F 30.27 in WNW 0.9 mph 5.0 mph 92% 0.00 in
00:56 61.5 °F 59.5 °F 30.27 in WNW 2.9 mph 3.0 mph 93% 0.00 in
01:06 61.7 °F 59.7 °F 30.26 in West 0.9 mph 2.0 mph 93% 0.00 in
01:11 61.5 °F 59.5 °F 30.26 in Calm   3.0 mph 93% 0.00 in
01:16 61.5 °F 59.5 °F 30.25 in Calm   1.0 mph 93% 0.00 in
01:21 61.5 °F 59.5 °F 30.25 in WNW 0.9 mph 2.0 mph 93% 0.00 in
01:26 61.5 °F 59.7 °F 30.25 in WNW 2.0 mph 4.0 mph 94% 0.00 in
01:31 61.5 °F 59.7 °F 30.25 in NNW 0.9 mph 3.0 mph 94% 0.00 in
01:36 61.5 °F 59.7 °F 30.25 in Calm   4.0 mph 94% 0.00 in
01:41 61.3 °F 59.5 °F 30.24 in Calm   1.0 mph 94% 0.00 in
01:46 61.3 °F 59.9 °F 30.24 in Calm   2.0 mph 95% 0.00 in
01:51 61.2 °F 59.7 °F 30.24 in WNW 0.9 mph 1.0 mph 95% 0.00 in
01:56 61.2 °F 59.7 °F 30.24 in Calm   1.0 mph 95% 0.00 in
02:01 61.2 °F 59.7 °F 30.23 in Calm   1.0 mph 95% 0.00 in
02:06 61.0 °F 59.9 °F 30.23 in WNW 0.9 mph 1.0 mph 96% 0.00 in
02:11 61.0 °F 59.9 °F 30.22 in WNW 0.9 mph 1.0 mph 96% 0.00 in
02:16 61.2 °F 60.1 °F 30.22 in Calm   1.0 mph 96% 0.00 in
WheeWeather.com
Compliments of Weather Underground - 2.5 mb